Location: Freistadt
(48.5112°N, 14.5013°E)
Time: 11:24:03
(UTC+02:00)

BEIJING 3B - Visible Passes

Search period start: 26 May 2024 00:00
Search period end: 05 June 2024 00:00
Orbit: 596 x 615 km, 97.9° (Epoch: 25 May)

Date Brightness Start Highest point End Pass type
(mag) Time Alt. Az. Time Alt. Az. Time Alt. Az.
26 May ? 22:05:10 12° ESE 22:08:17 27° ENE 22:11:52 10° N visible
26 May ? 23:42:02 22° SW 23:44:01 34° W 23:47:53 10° NNW visible
27 May ? 22:18:08 15° SE 22:21:04 35° ENE 22:24:57 10° N visible
27 May ? 23:55:00 18° SW 23:56:59 25° W 00:00:32 10° NW visible
28 May ? 22:31:06 19° SE 22:33:53 47° ENE 22:37:58 10° N visible
29 May ? 00:07:58 14° SW 00:09:57 19° W 00:13:03 10° NW visible
29 May ? 22:44:03 22° SSE 22:46:42 63° ENE 22:50:55 10° N visible
30 May ? 00:20:55 11° WSW 00:22:58 15° W 00:25:22 10° NW visible
30 May ? 22:57:01 24° SSE 22:59:32 85° ENE 23:03:49 10° NNW visible
31 May ? 00:34:54 10° WSW 00:35:59 11° W 00:37:04 10° WNW visible
31 May ? 21:34:43 10° E 21:37:06 15° ENE 21:39:30 10° NNE visible
31 May ? 23:09:58 25° S 23:12:23 72° WSW 23:16:40 10° NNW visible
01 Jun ? 21:46:50 10° ESE 21:49:48 19° ENE 21:52:49 10° NNE visible
01 Jun ? 23:22:54 24° SSW 23:25:16 52° W 23:29:27 10° NNW visible
02 Jun ? 21:59:06 10° ESE 22:02:31 24° ENE 22:05:58 10° N visible
02 Jun ? 23:35:51 21° SSW 23:38:10 39° W 23:42:11 10° NNW visible
03 Jun ? 22:11:55 12° SE 22:15:16 31° ENE 22:19:02 10° N visible
03 Jun ? 23:48:47 18° SW 23:51:05 29° W 23:54:49 10° NW visible
04 Jun ? 22:24:51 15° SE 22:28:01 41° ENE 22:32:01 10° N visible
